Regional Weather Roundup
Issued by NWS

Home | Current Version | Previous Version | Graphics & Text | Print | Product List | Glossary On
Versions: 1 2 3 4 5 6 7 8 9 10 11 12 13 14 15 16 17 18 19 20 21 22 23 24 25 26 27 28 29 30 31 32 33 34 35 36 37 38 39 40 41 42 43 44 45 46 47 48 49 50
000
ASUS45 KSLC 310010
RWRUT

UTAH REGIONAL WEATHER ROUNDUP
NATIONAL WEATHER SERVICE SALT LAKE CITY UT
600 PM MDT WED JUL 30 2014

UTZ001>011-023>025-310100-

NORTHERN UTAH

CITY           SKY/WX    TMP DP  RH WIND       PRES   REMARKS
HILL AFB       MOSUNNY   77  57  50 E22       30.19F
LOGAN          MOSUNNY   77  54  44 E20G29    30.21S
OGDEN          SUNNY     80  54  40 NE13G23   30.16F
PROVO AIRPORT  MOSUNNY   79  55  44 NW7       30.18S
SALT LAKE CITY PTSUNNY   81  55  40 SE9       30.13F
VERNAL         LGT RAIN  71  59  65 NW6       30.22F
WENDOVER       SUNNY     84  54  34 SE9G16    30.15F
HEBER CITY     CLOUDY    72  55  56 N8        30.26S
WEST JORDAN    MOSUNNY   81  61  50 N9G16     30.18F

$$

UTZ012>022-026-027-310100-

SOUTHERN UTAH

CITY           SKY/WX    TMP DP  RH WIND       PRES   REMARKS
BRYCE CANYON   PTSUNNY   77  47  34 NW9       30.33F
CEDAR CITY     MOSUNNY   85  45  24 N7        30.18F
MILFORD        MOSUNNY   88  49  25 NE12G23   30.14F
MOAB/CYNLANDS  SUNNY     87  52  29 VRB3      30.08F
PRICE          CLOUDY    77  53  43 NE21      30.20S
ST GEORGE      CLOUDY    99  52  20 NW15G22   29.95R HX  96
KANAB            N/A     93  46  20 SW9       30.12S

$$

REGIONAL REPORTS     COLORADO/ARIZONA

CITY           SKY/WX    TMP DP  RH WIND       PRES   REMARKS
CRAIG, CO      CLOUDY    58  58 100 NE6       30.28R
GRAND JUNCTION PTSUNNY   76  55  48 NW20      30.13S
RIFLE          CLOUDY    73  55  53 N7        30.19F
MONTROSE       MOSUNNY   80  54  40 N12       30.19S
CORTEZ         MOSUNNY   86  50  28 NW9       30.16F
PAGE, AZ       MOSUNNY   96  47  18 N8        30.02F HX  92
GRAND CANYON   MOSUNNY   83  46  27 N9G21     30.25F
KINGMAN        SUNNY     98  49  18 NW6       29.99F HX  95
FLAGSTAFF      PTSUNNY   82  40  22 W8        30.29F

$$

REGIONAL REPORTS    NEVADA/IDAHO/WYOMING

CITY           SKY/WX    TMP DP  RH WIND       PRES   REMARKS
LAS VEGAS, NV  MOSUNNY  103  47  15 VRB3      29.85F HX  99
ELY            MOSUNNY   83  40  21 N8        30.25F
ELKO           PTSUNNY   83  45  26 NE9       30.18F
POCATELLO, ID  MOSUNNY   85  47  26 E9        30.17F
BURLEY         SUNNY     87  43  21 E6        30.12F
EVANSTON, WY   CLOUDY    61  53  75 E12G22    30.39S
ROCK SPRINGS   CLOUDY    61  50  67 E18G29    30.38S

$$


USA.gov is the U.S. government's official web portal to all federal, state and local government web resources and services.